www.pogodaiklimat.ru

Погода и климат >> Архив погоды >> Латвия >> Салдус


ПОГОДА в Салдусе

  • Прогноз погоды в Салдусе
  • Монитор погоды в Салдусе

АРХИВ ПОГОДЫ в Салдусе

Время (UTC), дата Ветер
(напр.,м/с)
 
Видим.   Явления Облачность Т
(С)
Тd
(С)
f
(%)
Тe
(С)
Тes
(С)
Комфортность P
(гПа)
Po
(гПа)
Тmin
(С)
Tmax
(С)
R
(мм)
R24
(мм)
S
(см)
12 16.07 С 4-6
{7}
20 км н/о +17.0 +10.8 67 +17 +17 1005.7 992.4
15 16.07 С 4-5
{8}
20 км н/о +17.3 +9.1 59 +17 +17 1006.0 992.7
18 16.07 СЗ 3-5
{6}
20 км н/о +15.5 +8.7 64 +15 +15 1006.6 993.3
21 16.07 З 1-1
{2}
20 км н/о +10.5 +8.9 90 +10 +10 1007.3 993.7
00 17.07 СЗ 1-1
{2}
20 км н/о +9.0 +8.3 95 +8 +8 1007.3 993.6
03 17.07 СЗ 2-3
{3}
20 км н/о +9.0 +8.6 97 +7 +7 1007.1 993.4
06 17.07 -3
{4}
19 км н/о +12.6 +11.9 95 1007.4 993.9
09 17.07 С 4-7
{7}
20 км н/о +18.2 +12.3 68 +18 +18 1007.4 994.2
12 17.07 С 5-9
{9}
18 км н/о +21.3 +12.6 58 +24 +24 комфорт 1007.2 994.1
15 17.07 СВ 4 20 км н/о +21.1 +10.9 52 +23 +23 комфорт 1008.0 995.0
18 17.07 СЗ 3-4
{4}
20 км н/о +16.4 +12.5 78 +16 +16 1009.1 995.8
21 17.07 СЗ 4-6
{6}
10 км н/о +14.4 +14.0 97 +13 +13 1010.1 996.7
00 18.07 СЗ 3-5
{5}
10 км н/о +14.2 +13.7 97 +13 +13 1010.4 997.0
03 18.07 С 3-4
{4}
9000 м н/о +14.0 +13.5 97 +13 +13 1010.7 997.3
06 18.07 СЗ 3-4
{5}
20 км н/о +16.2 +13.4 83 +16 +16 1011.2 997.8
09 18.07 С 4-6
{7}
20 км н/о +21.1 +12.2 57 +23 +23 комфорт 1011.0 997.9
12 18.07 СЗ 4-7
{7}
18 км н/о +22.8 +12.1 51 +25 +25 комфорт 1010.9 997.8
15 18.07 С 5-8
{9}
19 км н/о +22.9 +10.6 46 +25 +25 комфорт 1010.7 997.6
18 18.07 С 4-5
{8}
20 км н/о +19.1 +9.2 53 +20 +20 1011.7 998.5
21 18.07 З 2-3
{5}
20 км н/о +14.0 +10.9 82 +13 +13 1012.6 999.1
00 19.07 З 2-3
{4}
16 км н/о +11.4 +10.9 97 +10 +10 1013.2 999.6
03 19.07 СЗ 3-4
{4}
600 м н/о +10.7 +10.6 99 +8 +8 1013.5 999.8
06 19.07 СЗ 3-5
{5}
20 км н/о +12.6 +11.4 92 +11 +11 1013.7 1000.1
09 19.07 СЗ 4-7
{7}
20 км н/о +20.4 +12.8 62 +23 +23 комфорт 1013.1 999.9
12 19.07 СЗ 4-6
{8}
20 км н/о +21.0 +11.8 56 +23 +23 комфорт 1013.0 999.8
15 19.07 С 5-7
{8}
20 км н/о +22.0 +10.7 49 +24 +24 комфорт 1012.9 999.8
18 19.07 СЗ 3-4
{5}
19 км н/о +19.0 +10.7 59 +20 +20 1013.5 1000.2
21 19.07 З 1-2
{4}
20 км н/о +13.8 +10.1 78 +14 +14 1014.6 1001.1
00 20.07 З 1-2
{2}
20 км н/о +10.8 +9.6 92 +10 +10 1015.5 1001.8
03 20.07 штиль 0-1
{2}
100 м н/о +10.5 +10.4 99 +10 +10 1016.0 1002.3
06 20.07 З 1-2
{2}
20 км н/о +16.5 +14.6 89 +17 +17 1016.2 1002.8
09 20.07 С 1-3
{3}
20 км н/о +21.6 +13.2 59 +24 +24 комфорт 1016.5 1003.3
12 20.07 С 1-3
{4}
20 км н/о +23.9 +10.8 44 +25 +25 комфорт 1016.4 1003.3
15 20.07 -4
{4}
18 км н/о +25.0 +11.8 44 1016.1 1003.1
18 20.07 штиль 0-1
{1}
20 км н/о +23.4 +13.8 55 +27 +27 душно 1016.1 1003.0
21 20.07 СВ 1-2
{2}
20 км н/о +15.4 +11.5 78 +16 +16 1017.4 1003.9
00 21.07 В 1-2
{2}
20 км н/о +12.5 +11.0 91 +12 +12 1017.6 1004.0
03 21.07 В 2-3
{3}
20 км н/о +12.9 +10.0 83 +12 +12 1017.0 1003.4
06 21.07 ЮВ 2-4
{5}
19 км н/о +20.7 +11.5 56 +23 +23 комфорт 1016.1 1002.9
09 21.07 ЮВ 4-7
{8}
20 км н/о +25.2 +13.0 47 +27 +27 жарко 1015.3 1002.3
12 21.07 ЮВ 4-6
{7}
20 км н/о +27.7 +12.8 40 +29 +29 жарко 1014.1 1001.2
15 21.07 З 3-6
{8}
15 км н/о +19.3 +16.1 82 +21 +21 комфорт 1014.8 1001.6
18 21.07 ЮЗ 3-5
{7}
18 км н/о +17.6 +16.2 91 +18 +18 1015.0 1001.7
21 21.07 З 2-3
{3}
11 км н/о +17.0 +16.6 97 +17 +17 1015.6 1002.3
00 22.07 ЮЗ 1-2
{3}
11 км н/о +16.3 +15.9 97 +17 +17 1015.9 1002.5
03 22.07 ЮЗ 1-2
{3}
17 км н/о +16.2 +15.6 96 +17 +17 1015.4 1002.0
06 22.07 З 2-5
{5}
19 км н/о +17.3 +15.9 91 +18 +18 1015.2 1001.9
09 22.07 З 3-7
{7}
18 км н/о +19.6 +15.2 76 +22 +22 комфорт 1015.2 1002.0
12 22.07 З 2-4
{7}
19 км н/о +18.9 +17.3 90 +21 +21 комфорт 1015.6 1002.3 0.4
15 22.07 СЗ 6-9
{9}
19 км н/о +19.0 +15.0 78 +20 +20 1016.1 1002.8
18 22.07 З 4-6
{7}
20 км н/о +17.4 +13.8 79 +17 +17 1016.7 1003.3
21 22.07 З 2-5
{5}
20 км н/о +14.9 +13.2 90 +15 +15 1016.8 1003.3
00 23.07 З 1-2
{3}
19 км н/о +14.3 +13.4 94 +15 +15 1017.0 1003.5
03 23.07 З 1-2
{3}
7000 м н/о +13.8 +13.6 99 +14 +14 1016.3 1002.8
06 23.07 СЗ 2-3
{3}
12 км н/о +14.8 +14.4 97 +14 +14 1016.8 1003.3
09 23.07 СЗ 3-5
{5}
20 км н/о +19.7 +13.6 68 +22 +22 комфорт 1016.7 1003.4

 

Местоположение метеостанции Салдус (Латвия): широта 56.68 долгота 22.50 высота над уровнем моря 112 м.

В архиве по умолчанию представлена погода в Салдусе за последнюю неделю. Архивные данные за месяц целиком и за предыдущие месяцы, начиная с января 2011 года, Вы можете получить, выбрав интересующий диапазон дат из раскрывающегося списка и нажав кнопку "Ввод!".


*Определитесь, кто Вы:
робот инопланетянин человек

Внимание! Время в таблицах - всемирное. Для получения местного времени необходимо прибавить поправку, которая равна 2 ч.

Смотрите также архив погоды в соседних городах и на ближайших метеорологических станциях:

Погода в Мажейкяе (Литва) (38 км)
Погода в Добеле (Латвия) (51 км)
Погода в Стенде (Латвия) (56 км)
Погода в Елгаве (Латвия) (75 км)
Погода в Тельшяе (Литва) (80 км)
Погода в Мерсрагсе (Латвия) (83 км)
Погода в Павилосте (Латвия) (83 км)
Погода в Лиепае (Латвия) (93 км)
Погода в Шяуляе (Литва) (98 км)
Погода в Вентспилсе (Латвия) (99 км)

Пояснения к столбцам:

Ветер - указаны скорость ветра в м/с - средняя за 10 мин, порывы в срок и между сроками (в фигурных скобках) и направление, откуда дует ветер: С - северный, СВ - северо-восточный, В - восточный, ЮВ - юго-восточный, Ю - южный, ЮЗ - юго-западный, З - западный, СЗ - северо-западный.
Видимость - горизонтальная дальность видимости в метрах или километрах. При видимости от 1 до 10 км при отсутствии осадков обычно наблюдается дымка, при ухудшении видимости до 1 км и менее - туман. В сухую погоду видимость может ухудшаться дымом, пылью или мглою.
Явления - указаны атмосферные явления, наблюдавшиеся в срок или в последний час перед сроком; фигурными скобками обозначены явления, наблюдавшиеся между сроками (за 1-3 часа до срока); квадратными скобками обозначены град или гололедные отложения с указанием их диаметра в мм.
Облачность - указаны через наклонную черту общая и нижняя облачность в баллах и высота нижней границы облаков в метрах; квадратными скобками обозначены формы облаков: Ci - перистые, Cs - перисто-слоистые, Cc - перисто-кучевые, Ac - высококучевые, As - высокослоистые, Sc - слоисто-кучевые, Ns - слоисто-дождевые, Cu - кучевые, Cb - кучево-дождевые. Подробнее классификацию облаков см. в Атласе облаков (PDF).
T - Температура воздуха - температура, измеренная на высоте 2 м над землей.
Td - Температура точки росы - температура, при понижении до которой содержащийся в воздухе водяной пар достигнет насыщения.
f - Относительная влажность воздуха - влажноcть воздуха, измеренная на высоте 2 м над землей.
Te - Эффективная температура - температура, которую ощущает одетый по сезону человек в тени. Характеристика душности погоды. При расчете учитывается влияние влажности воздуха и скорости ветра на теплоощущения человека.
Tes - Эффективная температура на солнце - температура, которую ощущает человек, с поправкой на солнечный нагрев. Характеристика знойности погоды. Зависит от высоты солнца над горизонтом, облачности и скорости ветра. Ночью, в пасмурную погоду, а также при ветре 12 м/с и более поправка равна нулю.
P - Атмосферное давление - приведенное к уровню моря атмосферное давление.
Po - Атмосферное давление - измеренное на уровне метеостанции атмосферное давление.
Tmin - Минимальная температура - минимум температуры воздуха на высоте 2 м над землей.
Tmax - Максимальная температура - максимум температуры воздуха на высоте 2 м над землей.
R - Количество осадков - Количество выпавших осадков за период времени, мм. При наведении курсора мыши на число - период времени, за который выпало указанное количество осадков.
R24 - Количество осадков - Количество выпавших осадков за 24 часа, мм.
S - Снежный покров - Высота снежного покрова, см. При наведении курсора мыши на число - состояние снежного покрова и степень покрытия местности в баллах.